sat.trackr.live / text

‹ back to catalog

STARLINK-4495

NORAD 53552 · 2022-101AB

PAYLOAD ACTIVE UNKNOWN

§ Identity

Operator
Country
US
Launch date
2022-08-19
Launch site
AFETR
Launch vehicle
Mass (kg)
RCS (m²)

Purposes: comms

External: N2YO · Heavens-Above · Gunter

§ Orbital elements

Epoch: 2026-05-24T23:23:55.521888Z

Period
95.44 min
Inclination
53.2152°
Eccentricity
0.0001145
Mean motion
15.08837922 rev/d
Perigee alt
539.0 km
Apogee alt
540.5 km
Semi-major
6,917.9 km
B*
-3.1038e-6
RAAN
81.6652°
Arg perigee
81.2272°
Mean anomaly
278.8849°
Rev number
20,847

§ Raw data

STARLINK-44951 53552U 22101AB  26144.97494817 -.00000337  00000+0 -31038-5 0  99962 53552  53.2152  81.6652 0001145  81.2272 278.8849 15.08837922208473

JSON: /api/v1/satellites/53552 · /tle

For live sub-satellite position, see the globe view (requires WebGL).

§ Visibility from observer

Set your observer location to see the next 7 days of passes ≥ 10°. The values pass through the URL so the page stays shareable.

No JS? Fill the form by hand. The geolocation button needs JavaScript.